sat.trackr.live / text

‹ back to catalog

STARLINK-37261

NORAD 68567 · 2026-070AB

PAYLOAD ACTIVE UNKNOWN

§ Identity

Operator
Country
US
Launch date
2026-04-02
Launch site
AFETR
Launch vehicle
Mass (kg)
RCS (m²)

Purposes: comms

External: N2YO · Heavens-Above · Gunter

§ Orbital elements

Epoch: 2026-05-25T00:39:42.593184Z

Period
93.85 min
Inclination
53.1592°
Eccentricity
0.0001020
Mean motion
15.34417667 rev/d
Perigee alt
462.0 km
Apogee alt
463.3 km
Semi-major
6,840.8 km
B*
6.7914e-4
RAAN
7.1805°
Arg perigee
99.0526°
Mean anomaly
261.0592°
Rev number
825

§ Raw data

STARLINK-372611 68567U 26070AB  26145.02757631  .00022652  00000+0  67914-3 0  99922 68567  53.1592   7.1805 0001020  99.0526 261.0592 15.34417667  8258

JSON: /api/v1/satellites/68567 · /tle

For live sub-satellite position, see the globe view (requires WebGL).

§ Visibility from observer

Set your observer location to see the next 7 days of passes ≥ 10°. The values pass through the URL so the page stays shareable.

No JS? Fill the form by hand. The geolocation button needs JavaScript.